COSMOS 2516 [GLONASS-M] 1 41554U 16032A 21111.32344830 .00000024 00000-0 00000-0 0 9990 2 41554 64.0148 256.1334 0012136 212.2659 181.7085 2.13106839 38103 FREGAT R/B 1 41555U 16032B 21111.59193215 .00000025 00000-0 00000-0 0 9990 2 41555 63.9253 259.0825 0104996 120.7760 240.2428 2.08091427 37222